Regional Weather Roundup
Issued by NWS State College, PA

Home | Current Version | Previous Version | Graphics & Text | Print | Product List | Glossary Off
Versions: 1 2 3 4 5 6 7 8 9 10 11 12 13 14 15 16 17 18 19 20 21 22 23 24 25 26 27 28 29 30 31 32 33 34 35 36 37 38 39 40 41 42 43 44 45 46 47 48 49 50

729
ASUS41 KCTP 230610
RWRCTP

REGIONAL WEATHER ROUNDUP
NATIONAL WEATHER SERVICE STATE COLLEGE PA
200 AM EDT WED AUG 23 2017

Note: "fair" indicates few or no clouds below 12,000 feet with no
significant weather and/or obstructions to visibility.

* = STATION THAT DOES NOT REPORT PRECIPITATION /E.G. RAIN...SNOW...ETC/
    THUNDER OR FOG.

PAZ002>004-007>009-013>016-020>023-029>032-230700-
WESTERN PENNSYLVANIA

CITY           SKY/WX    TMP DP  RH WIND       PRES   REMARKS
ERIE           CLOUDY    69  54  58 NW8       29.87R
MEADVILLE      MOCLDY    62  59  90 W3        29.91R
FRANKLIN*      PTCLDY    61  57  88 CALM      29.91S
NEW CASTLE     FAIR      65  65 100 NW3       29.91R
BEAVER COUNTY  NOT AVBL
BUTLER*        CLOUDY    65  62  90 CALM      29.90S
PITTSBURGH INT CLOUDY    67  65  93 W3        29.90R
PITTSBURGH     MOCLDY    67  60  78 NW6       29.89R
INDIANA*       CLOUDY    68  66  94 CALM      29.91R
LATROBE        CLOUDY    66  66 100 SW3       29.90R
WASHINGTON CO* CLOUDY    68  63  83 W7        29.91R
$$

PAZ004>006-010>012-017>019-024>028-033>037-041-042-045-046-049>053-230700-
CENTRAL PENNSYLVANIA

CITY           SKY/WX    TMP DP  RH WIND       PRES   REMARKS
BRADFORD       CLOUDY    59  58  96 W3        29.89R
DUBOIS         CLOUDY    64  60  87 NW8       29.88R
CLEARFIELD     CLOUDY    67  64  90 NW6       29.88R
JOHNSTOWN      LGT RAIN  67  63  87 NW10      29.90S
ALTOONA        CLOUDY    69  68  96 SW5       29.87S
STATE COLLEGE  CLOUDY    66  64  93 CALM      29.85S
WILLIAMSPORT   MOCLDY    72  69  90 W7        29.79S
SELINSGROVE    CLOUDY    71  70  96 CALM      29.81S
FT INDIANTOWN  CLOUDY    72  72 100 SW3       29.81S
CAPITAL CITY   CLOUDY    75  70  84 SW8       29.80F
HARRISBURG     CLOUDY    75  72  90 CALM      29.80S
YORK           CLOUDY    73  71  93 CALM      29.82F
$$

PAZ038>040-043-044-047-048-054-055-060>062-067>071-230700-
EASTERN PENNSYLVANIA

CITY           SKY/WX    TMP DP  RH WIND       PRES   REMARKS
SCRANTON       CLOUDY    71  69  93 SW7       29.79F THUNDER
MOUNT POCONO   CLOUDY    68  67  96 W13       29.83F
ALLENTOWN      LGT RAIN  74  70  87 SW7       29.79F
QUAKERTOWN*    CLOUDY    72  72 100 CALM      29.81F
READING        LGT RAIN  74  74 100 SW3       29.79F
LANCASTER      LGT RAIN  74  73  97 W6        29.81F
COATESVILLE    MOCLDY    73  72  94 CALM      29.84S
POTTSTOWN      PTCLDY    72  72 100 S3        29.82S
BLUE BELL      CLOUDY    72  72 100 CALM      29.82R
DOYLESTOWN     MOCLDY    71  71 100 CALM      29.79F
WILLOW GROVE   NOT AVBL
NORTH PHILA    CLOUDY    76  72  87 SW8       29.81S
PHILADELPHIA   CLOUDY    76  73  91 SW13      29.81R
$$




USA.gov is the U.S. government's official web portal to all federal, state and local government web resources and services.